Temperature
7 7 7 7 7 7 7 7 7 7 7 7 7 7 7 7 7 7 7 7 7 8 8 8 8 8 8 8 8 8 8 8 8 8 8 8 9 9 9 9 9 9 9
6 7 7 7 7 7 7 7 7 7 7 7 6 7 7 7 7 7 7 7 7 7 7 7 7 7 8 8 8 8 8 8 7 7 7 7 7 8 8 9 8 9 9
5 6 6 6 6 6 6 6 6 6 6 6 6 6 6 6 6 6 7 7 7 7 7 7 7 7 7 7 7 7 7 7 7 7 7 7 7 7 7 8 8 8 8
5 5 5 6 6 6 6 6 6 6 6 6 5 5 5 5 5 6 6 6 6 6 6 6 6 6 7 7 7 7 7 7 6 6 7 7 7 6 6 7 7 7 8
5 5 5 5 5 5 5 5 5 5 5 5 5 5 5 5 5 5 5 6 6 6 6 6 6 6 6 6 6 6 6 6 6 6 6 6 6 6 6 6 6 7 7
4 4 4 4 5 5 5 5 5 5 5 5 5 5 4 4 4 4 5 5 5 5 5 5 5 5 5 6 6 6 6 6 6 6 6 6 6 6 6 6 6 6 7
4 4 4 4 4 4 4 4 4 4 4 4 4 4 4 4 4 4 4 4 5 5 4 4 4 4 5 5 5 5 5 5 5 5 5 5 6 6 6 6 6 5 6
3 3 3 3 3 3 3 3 4 4 4 4 4 4 4 4 4 4 4 4 4 4 4 4 4 4 4 4 4 5 5 5 5 5 5 5 5 5 5 5 5 5 5
3 3 3 3 3 3 3 3 3 4 4 4 3 3 3 3 3 3 3 3 3 3 3 3 3 3 4 4 4 4 4 4 4 4 4 4 5 5 5 5 5 5 4
2 2 2 2 3 3 3 3 3 3 3 3 3 3 3 3 3 3 3 3 3 3 3 3 3 3 3 3 3 3 3 4 4 4 4 4 4 4 4 4 4 5 4
2 2 2 2 2 2 2 2 2 2 3 3 3 3 3 2 2 2 2 2 2 2 2 2 2 2 2 2 2 3 3 3 3 3 4 4 4 4 4 4 4 4 4
2 2 2 2 2 2 2 2 2 2 2 2 2 2 2 2 2 2 2 2 2 2 2 2 2 2 2 2 2 2 2 2 3 3 3 3 3 3 3 3 3 3 3
1 1 1 1 1 1 1 1 1 1 1 1 2 2 2 2 2 2 2 1 1 2 2 1 1 1 1 1 1 1 2 2 2 2 3 3 3 3 3 3 3 3 3
1 1 1 1 1 1 1 1 1 1 1 1 1 1 1 1 1 1 1 1 1 1 1 1 1 1 1 1 1 1 1 1 2 2 2 2 2 2 2 2 2 2 2
0 0 -0 -0 -0 0 0 1 0 0 0 0 0 1 1 1 1 1 1 1 0 0 0 0 0 0 0 0 0 1 1 1 1 1 1 2 2 2 2 2 2 2 2
-0 -0 -0 -0 -0 -0 -0 -0 -0 -0 -0 -0 -0 -0 0 0 0 0 0 0 -0 -0 -0 -0 -0 -0 -0 -0 -0 0 0 1 1 1 1 1 1 1 1 1 1 1 1
-1 -1 -1 -1 -1 -1 -1 -1 -1 -1 -1 -1 -1 -1 -0 -0 -0 -0 -0 -0 -1 -0 -0 -0 -1 -0 -0 -0 -1 -0 -0 0 0 0 0 1 1 1 1 1 1 1 1
-1 -1 -1 -1 -1 -1 -1 -1 -1 -1 -1 -1 -1 -1 -1 -1 -1 -1 -1 -1 -1 -1 -1 -1 -1 -1 -1 -1 -1 -1 -0 -0 -0 -0 -0 0 0 0 0 0 0 0 0
-1 -1 -1 -1 -1 -1 -1 -1 -1 -1 -2 -2 -1 -2 -2 -1 -1 -1 -1 -1 -1 -1 -1 -1 -1 -1 -1 -1 -1 -1 -1 -1 -1 -1 -1 -0 -0 -0 -0 -0 -0 0 0
-1 -1 -1 -1 -1 -1 -2 -2 -2 -2 -2 -2 -2 -2 -2 -2 -2 -2 -2 -2 -1 -1 -2 -2 -2 -2 -2 -2 -2 -2 -2 -1 -1 -1 -1 -1 -1 -1 -1 -1 -1 -0 -0
-2 -2 -2 -2 -2 -2 -2 -2 -2 -2 -2 -2 -2 -2 -2 -2 -2 -2 -2 -2 -2 -2 -2 -2 -2 -2 -2 -2 -2 -2 -2 -2 -2 -2 -2 -1 -1 -1 -1 -1 -1 -1 -1
-2 -2 -2 -2 -2 -2 -2 -2 -3 -3 -3 -3 -3 -3 -3 -3 -3 -3 -2 -2 -2 -2 -2 -2 -3 -3 -3 -3 -3 -2 -2 -2 -2 -2 -2 -2 -2 -2 -2 -2 -1 -1 -1
-3 -3 -3 -3 -3 -3 -3 -3 -3 -3 -3 -3 -3 -3 -3 -3 -3 -3 -3 -3 -3 -3 -3 -3 -3 -3 -3 -3 -3 -3 -3 -3 -3 -3 -2 -2 -2 -2 -2 -2 -2 -2 -2
-3 -3 -3 -3 -3 -3 -3 -3 -3 -3 -3 -3 -3 -3 -3 -3 -3 -3 -3 -3 -4 -4 -4 -4 -4 -4 -3 -3 -3 -3 -3 -3 -3 -3 -3 -3 -2 -2 -2 -2 -2 -2 -2
-3 -4 -3 -3 -3 -4 -3 -4 -4 -4 -4 -4 -4 -4 -4 -4 -4 -4 -4 -4 -4 -4 -4 -4 -4 -4 -4 -4 -4 -4 -3 -3 -3 -3 -3 -3 -3 -3 -3 -3 -2 -2 -2
-4 -4 -4 -4 -4 -4 -4 -4 -4 -4 -4 -4 -4 -4 -4 -4 -4 -4 -4 -4 -4 -4 -4 -4 -4 -4 -4 -4 -4 -4 -4 -3 -3 -3 -3 -3 -3 -3 -3 -3 -3 -3 -2
Wind_Speed
5 3 2 1 1 1 1 2 2 3 2 1 2 2 3 3 3 3 3 4 4 3 3 3 3 3 3 3 3 2 2 2 1 1 2 4 4 4 4 4 4 5 7
3 3 2 1 1 2 2 3 3 3 3 3 3 3 3 3 3 3 4 4 4 4 4 4 3 3 3 3 3 2 2 2 2 2 1 2 3 3 4 4 5 5 4
3 3 3 3 2 3 3 3 4 4 3 3 2 2 1 2 2 2 3 4 4 4 5 5 4 4 4 4 4 4 3 3 3 3 3 2 4 3 3 4 5 5 4
2 2 3 3 3 4 4 3 3 3 3 2 3 3 3 3 4 3 3 3 4 4 4 5 4 4 4 4 5 4 4 4 4 3 3 3 3 2 2 3 4 5 5
2 2 3 3 4 4 3 3 3 3 3 3 3 3 3 3 3 2 2 3 2 3 4 4 4 4 4 4 4 4 4 4 5 4 3 3 3 4 3 5 4 4 4
2 2 3 3 4 4 4 3 3 4 3 3 3 3 4 4 3 2 3 2 2 2 3 3 3 3 3 4 4 4 5 4 5 4 4 4 4 3 3 4 5 5 4
2 3 4 4 5 5 5 4 4 5 4 3 3 4 4 4 3 3 3 3 2 2 3 2 3 3 3 4 4 4 5 5 5 5 4 4 5 4 3 4 5 6 4
3 3 3 4 5 6 6 5 5 5 4 4 4 4 4 3 3 3 3 3 3 3 3 3 3 3 3 3 3 3 4 4 5 5 5 4 4 4 4 4 4 5 5
4 4 4 4 5 5 6 5 5 5 4 4 4 4 4 3 3 3 2 3 2 2 2 2 3 3 3 3 3 3 4 4 4 5 5 5 4 4 4 4 4 4 5
5 5 5 5 5 5 5 4 4 5 4 4 3 3 3 4 3 2 3 3 2 2 2 2 2 2 2 3 3 3 3 3 4 4 4 4 3 4 3 3 4 4 5
5 6 6 6 6 5 4 4 4 4 4 3 2 2 3 3 2 2 2 2 2 2 2 2 2 2 2 3 3 3 3 3 3 3 3 4 4 3 3 3 4 4 4
4 5 6 6 6 5 5 4 4 4 4 3 2 2 1 1 1 1 1 1 2 2 2 2 2 2 2 3 3 3 3 3 3 4 4 4 3 4 3 3 4 4 4
5 5 6 6 6 6 5 4 4 3 4 3 2 2 1 1 1 1 1 1 1 1 1 1 2 2 2 2 3 3 3 4 4 4 4 4 4 4 4 4 3 3 4
4 5 6 6 6 5 5 4 4 4 4 4 3 2 2 2 1 1 1 1 1 1 1 1 2 2 2 2 2 3 3 3 3 4 4 4 4 5 5 4 4 3 3
5 5 6 6 5 6 6 5 4 4 4 4 3 3 2 2 2 1 1 1 1 2 1 1 2 2 2 2 2 2 3 3 3 4 4 4 5 6 5 4 4 3 3
6 6 6 6 6 5 5 5 4 4 3 3 4 3 3 3 3 2 2 2 2 1 1 1 1 2 2 3 4 4 3 3 3 3 4 4 4 5 6 6 5 4 4
6 6 5 5 5 5 4 4 4 3 3 3 4 3 3 3 3 3 3 2 2 2 1 1 1 2 2 4 5 6 4 3 3 3 3 4 3 4 3 4 4 4 5
5 5 5 5 5 4 4 3 3 2 3 3 3 3 3 3 3 3 3 3 2 2 2 2 2 2 3 5 5 6 4 3 3 3 3 2 3 3 3 2 2 3 4
4 4 4 5 4 3 3 3 2 2 3 3 3 3 2 3 3 3 3 3 3 3 3 2 2 2 3 5 5 5 2 2 3 3 3 3 2 3 3 2 2 3 4
3 3 4 4 3 3 2 2 2 2 3 3 3 2 2 2 2 3 3 3 3 3 3 3 3 2 2 5 6 5 1 2 2 3 3 4 3 3 3 2 2 3 3
4 3 3 3 3 3 2 2 2 3 3 3 3 2 2 2 2 2 2 3 3 3 3 3 3 3 3 5 6 6 2 2 2 3 3 3 4 4 4 3 3 4 3
4 3 3 3 3 2 2 2 3 3 3 3 3 3 3 2 2 2 2 2 2 3 3 3 4 3 3 5 5 7 5 4 2 3 3 3 4 5 5 4 3 4 3
4 3 3 3 3 3 1 2 3 3 3 3 3 3 3 2 2 2 2 2 2 2 2 3 3 3 3 4 6 6 6 6 3 3 4 5 5 5 4 4 5 4 2
3 3 2 2 3 3 3 2 3 2 2 2 3 3 3 3 3 2 2 2 2 2 2 2 3 3 3 3 3 3 3 4 4 3 4 5 5 4 4 4 4 3 1
3 2 2 2 3 3 3 3 2 2 2 2 2 3 3 2 3 3 3 3 2 2 2 2 2 3 3 5 7 5 3 3 3 3 2 3 3 3 3 3 3 3 2
2 2 2 2 3 3 3 3 2 1 1 2 2 2 2 2 2 2 4 6 5 6 6 6 5 4 5 7 8 8 7 6 5 3 2 2 3 3 3 3 3 3 3
Wind_Direction
263 276 293 277 268 292 287 266 270 266 268 266 261 265 262 257 253 253 257 257 246 231 213 217 215 216 212 212 206 218 222 232 192 237 297 296 272 261 255 236 230 232 228
311 311 317 314 270 264 270 275 278 268 251 246 240 241 245 245 241 248 261 254 239 225 216 202 215 223 220 213 207 204 230 241 210 201 234 291 299 266 261 244 232 235 237
287 303 322 316 294 278 270 273 277 274 261 263 268 273 282 284 262 255 248 249 237 230 221 215 211 218 214 214 217 209 216 234 256 220 206 217 246 295 270 246 242 236 231
304 303 315 318 307 285 279 274 276 280 276 254 247 233 241 255 259 254 252 254 236 231 228 219 212 218 224 220 224 230 220 217 236 251 240 242 237 236 279 277 256 244 237
302 307 311 303 309 306 290 277 281 279 273 252 241 239 243 254 269 271 268 252 237 231 223 220 211 219 228 229 228 231 226 227 231 236 246 256 262 250 243 270 281 274 252
312 316 325 324 318 319 317 294 279 272 269 262 255 249 253 256 267 265 264 256 239 230 219 220 216 226 230 234 236 237 226 234 238 241 244 241 238 241 239 249 263 271 270
330 327 331 323 318 318 316 312 285 273 271 264 258 254 251 243 248 251 260 262 245 249 227 226 225 236 236 234 237 235 230 230 227 234 247 249 249 246 248 249 264 276 279
339 322 312 309 310 311 307 304 297 274 266 263 260 255 253 239 247 250 261 251 244 237 227 228 230 238 245 247 240 239 239 236 229 238 243 252 252 245 245 241 248 276 279
332 324 317 314 306 302 299 294 297 292 281 270 258 246 245 247 254 257 256 249 251 251 227 235 241 237 241 240 237 241 241 239 237 237 243 252 253 243 248 248 232 237 266
331 329 327 319 311 305 304 302 294 293 282 277 256 263 245 247 244 242 241 239 245 248 236 239 241 254 256 246 242 247 248 242 246 241 238 252 263 249 240 240 246 237 244
323 329 326 321 319 321 318 314 311 312 304 288 279 273 257 244 239 246 247 224 224 229 230 236 239 251 262 255 243 249 251 251 265 270 258 262 265 260 252 242 240 238 238
318 324 326 328 329 327 323 315 313 315 310 291 291 293 279 238 233 247 254 235 227 234 233 245 250 256 267 263 256 258 264 257 263 275 273 273 273 271 265 247 240 244 245
320 329 336 334 330 327 327 319 319 322 324 323 327 337 340 306 274 269 264 255 245 234 246 244 253 260 261 270 272 262 266 263 262 267 268 271 268 269 268 262 253 250 255
315 330 334 330 329 327 327 328 333 337 339 343 345 352 350 334 297 280 266 280 274 249 258 275 268 262 267 276 276 281 283 282 282 280 275 273 267 264 260 259 247 242 249
319 326 326 325 326 331 333 336 339 344 346 349 353 349 349 352 349 353 355 324 303 310 304 296 293 296 294 280 278 283 284 281 287 289 281 276 276 275 268 259 243 234 242
309 315 318 322 322 328 330 334 339 343 349 348 344 347 357 4 4 359 13 8 339 311 315 318 305 301 304 311 315 302 284 280 277 286 292 290 289 288 288 280 269 246 237
303 306 308 312 310 313 318 324 327 339 353 351 346 350 2 9 3 355 14 11 349 341 343 316 304 300 302 322 324 324 316 297 290 288 290 294 302 306 297 297 297 283 269
299 302 306 312 311 314 320 326 337 355 356 350 347 354 10 11 1 358 6 356 348 345 343 333 334 329 327 339 341 341 336 322 305 295 287 288 298 302 302 297 297 284 277
290 293 298 306 309 310 316 336 346 359 357 348 346 354 7 11 358 360 355 349 354 350 344 339 354 344 333 344 349 347 334 333 324 317 319 309 296 312 312 304 286 290 289
309 311 316 318 314 311 323 346 348 1 350 340 335 336 359 18 359 352 348 350 354 348 346 353 352 338 326 339 348 348 344 337 330 329 325 323 324 316 302 287 273 277 285
312 321 322 320 311 316 333 346 353 348 333 335 341 358 6 9 358 0 352 353 355 355 357 351 342 334 332 340 346 347 351 337 331 327 326 327 337 329 316 295 275 271 275
320 327 329 327 330 337 354 349 342 331 338 350 359 4 3 0 5 13 357 0 1 2 358 359 351 345 336 342 344 349 349 345 325 315 314 323 336 328 325 320 320 312 300
307 321 326 331 342 341 355 339 322 334 351 3 3 2 2 4 2 7 2 359 359 358 352 356 351 341 340 340 347 350 349 346 336 317 331 335 337 334 333 341 337 331 306
300 317 329 336 336 338 343 319 315 338 3 5 358 358 6 5 5 360 356 350 340 343 347 346 340 332 330 333 336 337 335 339 337 330 334 344 350 355 356 352 349 347 313
299 305 303 304 309 323 330 327 327 349 3 355 356 356 360 0 0 358 351 340 329 329 331 322 317 321 326 335 344 344 341 345 342 342 349 1 3 4 359 356 356 349 347
286 300 297 296 303 318 321 322 327 345 12 2 359 353 353 354 358 0 1 4 0 1 357 349 341 334 339 340 348 355 359 6 13 12 17 7 357 349 347 348 347 348 350
Height
1478 1479 1478 1478 1478 1478 1477 1477 1476 1476 1475 1474 1474 1473 1472 1472 1472 1472 1472 1473 1473 1474 1474 1475 1475 1475 1476 1477 1478 1478 1479 1479 1480 1480 1480 1479 1480 1479 1479 1479 1479 1480 1480
1475 1475 1475 1475 1474 1474 1474 1473 1472 1472 1472 1471 1470 1470 1469 1468 1468 1468 1468 1468 1469 1469 1470 1470 1470 1471 1471 1472 1473 1474 1474 1474 1476 1476 1476 1475 1475 1473 1474 1474 1474 1474 1475
1473 1472 1472 1472 1471 1471 1470 1470 1469 1469 1468 1467 1467 1466 1466 1465 1464 1463 1463 1464 1465 1465 1466 1466 1466 1467 1467 1467 1468 1469 1469 1469 1471 1473 1474 1473 1471 1469 1468 1469 1469 1469 1469
1471 1470 1470 1469 1468 1468 1467 1467 1466 1465 1464 1464 1463 1462 1461 1459 1459 1458 1458 1460 1461 1461 1461 1462 1462 1462 1463 1463 1464 1465 1465 1466 1466 1468 1469 1470 1468 1467 1464 1464 1464 1465 1465
1469 1468 1467 1467 1466 1465 1464 1463 1462 1461 1461 1460 1459 1458 1457 1456 1455 1455 1455 1455 1456 1456 1457 1457 1457 1458 1458 1459 1459 1460 1461 1461 1461 1462 1463 1464 1464 1463 1462 1459 1459 1460 1460
1467 1466 1465 1464 1463 1462 1461 1460 1459 1458 1458 1456 1455 1454 1453 1452 1451 1451 1450 1450 1450 1451 1452 1452 1453 1453 1453 1454 1454 1455 1456 1456 1457 1457 1458 1459 1459 1458 1458 1456 1455 1455 1455
1465 1463 1462 1461 1460 1459 1457 1456 1455 1454 1453 1453 1452 1451 1450 1448 1447 1447 1447 1446 1446 1446 1447 1447 1448 1448 1449 1449 1450 1450 1451 1451 1452 1452 1453 1454 1454 1454 1454 1453 1452 1451 1450
1463 1462 1460 1459 1457 1456 1454 1453 1452 1451 1450 1449 1448 1447 1447 1445 1445 1444 1443 1443 1442 1443 1443 1444 1444 1444 1444 1445 1445 1445 1446 1447 1447 1447 1448 1448 1448 1449 1449 1449 1449 1447 1446
1462 1460 1459 1457 1455 1453 1451 1449 1448 1447 1447 1446 1445 1444 1444 1443 1442 1441 1440 1440 1439 1439 1440 1440 1440 1440 1440 1440 1440 1441 1442 1442 1442 1442 1442 1443 1443 1444 1444 1445 1445 1445 1442
1461 1459 1457 1455 1452 1451 1449 1447 1446 1444 1443 1443 1442 1441 1440 1439 1438 1437 1437 1436 1436 1436 1435 1436 1436 1435 1436 1436 1436 1437 1437 1437 1437 1437 1437 1437 1438 1438 1439 1439 1440 1440 1439
1460 1458 1456 1453 1450 1448 1446 1444 1443 1442 1440 1439 1438 1437 1436 1436 1435 1434 1433 1433 1432 1432 1432 1432 1432 1432 1432 1432 1432 1432 1432 1432 1432 1432 1432 1432 1433 1433 1434 1434 1434 1434 1434
1460 1457 1454 1451 1448 1446 1444 1442 1440 1439 1438 1436 1435 1434 1433 1432 1431 1431 1430 1430 1429 1429 1429 1428 1428 1428 1428 1428 1428 1428 1428 1428 1428 1428 1428 1428 1428 1428 1429 1429 1429 1428 1428
1458 1456 1453 1449 1447 1444 1442 1440 1438 1437 1436 1434 1432 1431 1430 1429 1428 1427 1427 1427 1426 1426 1425 1425 1425 1425 1425 1425 1425 1425 1425 1425 1425 1425 1424 1424 1424 1424 1424 1424 1423 1423 1423
1457 1454 1451 1448 1445 1443 1441 1438 1437 1435 1433 1431 1430 1428 1427 1426 1426 1425 1424 1424 1423 1422 1422 1422 1422 1423 1422 1422 1422 1422 1422 1422 1421 1421 1421 1420 1420 1420 1420 1419 1419 1419 1419
1455 1452 1449 1446 1444 1441 1439 1437 1435 1433 1431 1430 1428 1427 1426 1425 1424 1422 1422 1421 1421 1420 1420 1420 1420 1420 1419 1419 1419 1419 1419 1419 1418 1417 1417 1416 1416 1416 1415 1415 1414 1414 1414
1453 1450 1448 1445 1442 1440 1438 1436 1434 1432 1430 1429 1427 1425 1424 1423 1421 1420 1420 1419 1419 1419 1418 1417 1417 1417 1417 1417 1417 1417 1416 1415 1415 1413 1412 1412 1412 1411 1411 1411 1410 1410 1410
1451 1448 1446 1443 1441 1439 1437 1435 1433 1431 1429 1427 1426 1424 1423 1421 1420 1419 1418 1417 1417 1417 1416 1416 1415 1415 1415 1415 1415 1414 1414 1412 1411 1410 1409 1408 1407 1407 1406 1406 1405 1406 1407
1449 1447 1444 1442 1439 1437 1435 1433 1432 1429 1428 1426 1425 1423 1421 1420 1419 1418 1417 1416 1416 1415 1414 1414 1413 1413 1412 1412 1412 1411 1411 1410 1409 1407 1406 1405 1404 1404 1403 1402 1402 1402 1403
1447 1445 1442 1440 1437 1436 1434 1432 1430 1428 1426 1425 1423 1422 1421 1419 1418 1417 1416 1416 1415 1414 1413 1412 1411 1411 1410 1410 1409 1409 1408 1407 1406 1405 1404 1403 1402 1401 1401 1400 1399 1399 1400
1444 1442 1440 1437 1435 1434 1432 1430 1428 1426 1425 1423 1422 1421 1420 1418 1417 1416 1415 1415 1414 1413 1412 1411 1410 1409 1408 1407 1407 1407 1406 1405 1403 1402 1402 1401 1400 1399 1399 1398 1397 1397 1396
1442 1439 1437 1435 1434 1432 1430 1429 1427 1425 1424 1422 1421 1420 1418 1417 1416 1415 1415 1414 1413 1412 1410 1409 1408 1408 1407 1405 1405 1405 1404 1402 1401 1400 1399 1398 1397 1397 1396 1396 1395 1394 1394
1439 1437 1435 1434 1432 1431 1429 1427 1426 1424 1423 1422 1420 1419 1417 1416 1416 1415 1414 1413 1412 1411 1409 1408 1407 1406 1405 1404 1403 1403 1402 1401 1400 1398 1397 1396 1395 1395 1394 1393 1392 1392 1391
1437 1435 1434 1432 1431 1429 1428 1426 1425 1423 1422 1421 1419 1418 1417 1416 1415 1414 1413 1412 1411 1410 1408 1407 1405 1405 1404 1403 1402 1401 1400 1399 1398 1397 1396 1395 1394 1392 1391 1390 1389 1389 1388
1435 1433 1432 1430 1429 1428 1427 1426 1424 1423 1421 1419 1418 1417 1416 1415 1414 1413 1412 1411 1410 1408 1407 1406 1405 1404 1403 1402 1400 1399 1398 1397 1396 1395 1394 1393 1392 1390 1389 1388 1387 1386 1386
1433 1432 1430 1429 1428 1427 1426 1425 1423 1422 1420 1419 1417 1416 1415 1414 1413 1412 1411 1410 1409 1408 1407 1406 1405 1403 1401 1401 1400 1399 1397 1395 1394 1393 1392 1391 1390 1389 1387 1386 1385 1385 1384
1431 1430 1429 1428 1427 1426 1425 1423 1422 1421 1419 1418 1417 1416 1414 1413 1412 1411 1410 1409 1409 1408 1407 1406 1405 1403 1402 1400 1398 1397 1396 1394 1393 1392 1391 1390 1389 1388 1387 1386 1385 1384 1383